Time,TemperatureF,DewpointF,PressureIn,WindDirection,WindDirectionDegrees,WindSpeedMPH,WindSpeedGustMPH,Humidity,HourlyPrecipIn,Conditions,Clouds,dailyrainin,SolarRadiationWatts/m^2,SoftwareType,DateUTC
2013-02-22 00:21:00,28.0,22.0,-100.00,South,188,4.0,8.0,77,0.00,,,0.00,1.000000,,2013-02-22 08:21:00,
2013-02-22 00:31:00,28.0,22.0,-100.00,South,188,4.0,8.0,77,0.00,,,0.00,1.000000,,2013-02-22 08:31:00,
2013-02-22 00:41:00,28.0,22.0,-100.00,South,188,4.0,8.0,77,0.00,,,0.00,1.000000,,2013-02-22 08:41:00,
2013-02-22 00:52:00,28.0,22.0,-100.00,South,188,4.0,8.0,77,0.00,,,0.00,1.000000,,2013-02-22 08:52:00,
2013-02-22 01:11:00,28.0,22.0,-100.00,SSW,196,4.0,8.0,78,0.00,,,0.00,1.000000,,2013-02-22 09:11:00,
2013-02-22 01:21:00,28.0,22.0,-100.00,SSW,196,4.0,8.0,78,0.00,,,0.00,1.000000,,2013-02-22 09:21:00,
2013-02-22 01:31:00,28.0,22.0,-100.00,SSW,196,4.0,8.0,78,0.00,,,0.00,1.000000,,2013-02-22 09:31:00,
2013-02-22 01:41:00,28.0,22.0,-100.00,SSW,196,4.0,8.0,78,0.00,,,0.00,1.000000,,2013-02-22 09:41:00,
2013-02-22 01:51:00,28.0,22.0,-100.00,SSW,196,4.0,8.0,78,0.00,,,0.00,1.000000,,2013-02-22 09:51:00,
2013-02-22 02:21:00,27.0,23.0,-100.00,South,184,4.0,6.0,83,0.00,,,0.00,1.000000,,2013-02-22 10:21:00,
2013-02-22 02:31:00,27.0,23.0,-100.00,South,184,4.0,6.0,83,0.00,,,0.00,1.000000,,2013-02-22 10:31:00,
2013-02-22 02:42:00,27.0,23.0,-100.00,South,184,4.0,6.0,83,0.00,,,0.00,1.000000,,2013-02-22 10:42:00,
2013-02-22 02:51:00,27.0,23.0,-100.00,South,184,4.0,6.0,83,0.00,,,0.00,1.000000,,2013-02-22 10:51:00,
2013-02-22 03:21:00,26.0,22.0,-100.00,SSE,167,3.0,8.0,85,0.00,,,0.00,1.000000,,2013-02-22 11:21:00,
2013-02-22 03:32:00,26.0,22.0,-100.00,SSE,167,3.0,8.0,85,0.00,,,0.00,1.000000,,2013-02-22 11:32:00,
2013-02-22 03:42:00,26.0,22.0,-100.00,SSE,167,3.0,8.0,85,0.00,,,0.00,1.000000,,2013-02-22 11:42:00,
2013-02-22 03:52:00,26.0,22.0,-100.00,SSE,167,3.0,8.0,85,0.00,,,0.00,1.000000,,2013-02-22 11:52:00,
2013-02-22 04:21:00,26.0,22.0,-100.00,South,181,5.0,7.0,85,0.00,,,0.00,1.000000,,2013-02-22 12:21:00,
2013-02-22 04:32:00,26.0,22.0,-100.00,South,181,5.0,7.0,85,0.00,,,0.00,1.000000,,2013-02-22 12:32:00,
2013-02-22 04:42:00,26.0,22.0,-100.00,South,181,5.0,7.0,85,0.00,,,0.00,1.000000,,2013-02-22 12:42:00,
2013-02-22 04:52:00,26.0,22.0,-100.00,South,181,5.0,7.0,85,0.00,,,0.00,1.000000,,2013-02-22 12:52:00,
2013-02-22 05:22:00,25.0,22.0,-100.00,SSW,206,5.0,8.0,89,0.00,,,0.00,1.000000,,2013-02-22 13:22:00,
2013-02-22 05:31:00,25.0,22.0,-100.00,SSW,206,5.0,8.0,89,0.00,,,0.00,1.000000,,2013-02-22 13:31:00,
2013-02-22 05:41:00,25.0,22.0,-100.00,SSW,206,5.0,8.0,89,0.00,,,0.00,1.000000,,2013-02-22 13:41:00,
2013-02-22 05:51:00,25.0,22.0,-100.00,SSW,206,5.0,8.0,89,0.00,,,0.00,1.000000,,2013-02-22 13:51:00,
2013-02-22 06:21:00,26.0,23.0,-100.00,SSW,206,6.0,11.0,87,0.00,,,-99.99,1.000000,,2013-02-22 14:21:00,
2013-02-22 06:32:00,26.0,23.0,-100.00,SSW,206,6.0,11.0,87,0.00,,,-99.99,1.000000,,2013-02-22 14:32:00,
2013-02-22 06:41:00,26.0,23.0,-100.00,SSW,206,6.0,11.0,87,0.00,,,-99.99,1.000000,,2013-02-22 14:41:00,
2013-02-22 06:52:00,26.0,23.0,-100.00,SSW,206,6.0,11.0,87,0.00,,,-99.99,1.000000,,2013-02-22 14:52:00,
2013-02-22 07:21:00,25.0,22.0,-100.00,South,177,4.0,9.0,89,0.00,,,0.00,1.000000,,2013-02-22 15:21:00,
2013-02-22 07:32:00,25.0,22.0,-100.00,South,177,4.0,9.0,89,0.00,,,0.00,1.000000,,2013-02-22 15:32:00,
2013-02-22 07:41:00,25.0,22.0,-100.00,South,177,4.0,9.0,89,0.00,,,0.00,1.000000,,2013-02-22 15:41:00,
2013-02-22 07:51:00,25.0,22.0,-100.00,South,177,4.0,9.0,89,0.00,,,0.00,1.000000,,2013-02-22 15:51:00,
2013-02-22 08:21:00,27.0,23.0,-100.00,South,171,4.0,6.0,85,0.00,,,-99.99,28.000000,,2013-02-22 16:21:00,
2013-02-22 08:31:00,27.0,23.0,-100.00,South,171,4.0,6.0,85,0.00,,,-99.99,28.000000,,2013-02-22 16:31:00,
2013-02-22 08:41:00,27.0,23.0,-100.00,South,171,4.0,6.0,85,0.00,,,-99.99,28.000000,,2013-02-22 16:41:00,
2013-02-22 08:52:00,27.0,23.0,-100.00,South,171,4.0,6.0,85,0.00,,,-99.99,28.000000,,2013-02-22 16:52:00,
2013-02-22 09:21:00,30.0,24.0,-100.00,SSW,197,4.0,8.0,77,0.00,,,0.00,83.000000,,2013-02-22 17:21:00,
2013-02-22 09:31:00,30.0,24.0,-100.00,SSW,197,4.0,8.0,77,0.00,,,0.00,83.000000,,2013-02-22 17:31:00,
2013-02-22 09:41:00,30.0,24.0,-100.00,SSW,197,4.0,8.0,77,0.00,,,0.00,83.000000,,2013-02-22 17:41:00,
2013-02-22 09:52:00,30.0,24.0,-100.00,SSW,197,4.0,8.0,77,0.00,,,0.00,83.000000,,2013-02-22 17:52:00,
2013-02-22 10:22:00,35.0,24.0,-100.00,South,186,7.0,10.0,64,0.00,,,0.00,206.000000,,2013-02-22 18:22:00,
2013-02-22 10:32:00,35.0,24.0,-100.00,South,186,7.0,10.0,64,0.00,,,0.00,206.000000,,2013-02-22 18:32:00,
2013-02-22 10:42:00,35.0,24.0,-100.00,South,186,7.0,10.0,64,0.00,,,0.00,206.000000,,2013-02-22 18:42:00,
2013-02-22 10:51:00,35.0,24.0,-100.00,South,186,7.0,10.0,64,0.00,,,0.00,206.000000,,2013-02-22 18:51:00,
2013-02-22 11:11:00,37.0,24.0,-100.00,SSW,197,6.0,14.0,58,0.00,,,0.00,314.000000,,2013-02-22 19:11:00,
2013-02-22 11:21:00,37.0,24.0,-100.00,SSW,197,6.0,14.0,58,0.00,,,0.00,314.000000,,2013-02-22 19:21:00,
2013-02-22 11:31:00,37.0,24.0,-100.00,SSW,197,6.0,14.0,58,0.00,,,0.00,314.000000,,2013-02-22 19:31:00,
2013-02-22 11:41:00,37.0,24.0,-100.00,SSW,197,6.0,14.0,58,0.00,,,0.00,314.000000,,2013-02-22 19:41:00,
2013-02-22 11:51:00,37.0,24.0,-100.00,SSW,197,6.0,14.0,58,0.00,,,0.00,314.000000,,2013-02-22 19:51:00,
2013-02-22 13:21:00,42.0,27.0,-100.00,SW,214,7.0,14.0,55,-99.99,,,0.00,359.000000,,2013-02-22 21:21:00,
2013-02-22 13:31:00,42.0,27.0,-100.00,SW,214,7.0,14.0,55,-99.99,,,0.00,359.000000,,2013-02-22 21:31:00,
2013-02-22 13:42:00,42.0,27.0,-100.00,SW,214,7.0,14.0,55,-99.99,,,0.00,359.000000,,2013-02-22 21:42:00,
2013-02-22 13:51:00,42.0,27.0,-100.00,SW,214,7.0,14.0,55,-99.99,,,0.00,359.000000,,2013-02-22 21:51:00,
2013-02-22 14:21:00,46.0,28.0,-100.00,SW,218,10.0,18.0,50,0.00,,,0.00,630.000000,,2013-02-22 22:21:00,
2013-02-22 14:31:00,46.0,28.0,-100.00,SW,218,10.0,18.0,50,0.00,,,0.00,630.000000,,2013-02-22 22:31:00,
2013-02-22 14:41:00,46.0,28.0,-100.00,SW,218,10.0,18.0,50,0.00,,,0.00,630.000000,,2013-02-22 22:41:00,
2013-02-22 14:51:00,46.0,28.0,-100.00,SW,218,10.0,18.0,50,0.00,,,0.00,630.000000,,2013-02-22 22:51:00,
2013-02-22 15:21:00,41.0,28.0,-100.00,West,265,18.0,31.0,60,0.00,,,-99.99,262.000000,,2013-02-22 23:21:00,
2013-02-22 15:31:00,41.0,28.0,-100.00,West,265,18.0,31.0,60,0.00,,,-99.99,262.000000,,2013-02-22 23:31:00,
2013-02-22 15:41:00,41.0,28.0,-100.00,West,265,18.0,31.0,60,0.00,,,-99.99,262.000000,,2013-02-22 23:41:00,
2013-02-22 15:52:00,41.0,28.0,-100.00,West,265,18.0,31.0,60,0.00,,,-99.99,262.000000,,2013-02-22 23:52:00,
2013-02-22 16:21:00,35.0,33.0,-100.00,WSW,239,8.0,33.0,92,0.01,,,0.01,53.000000,,2013-02-23 00:21:00,
2013-02-22 16:32:00,35.0,33.0,-100.00,WSW,239,8.0,33.0,92,0.01,,,0.01,53.000000,,2013-02-23 00:32:00,
2013-02-22 16:41:00,35.0,33.0,-100.00,WSW,239,8.0,33.0,92,0.01,,,0.01,53.000000,,2013-02-23 00:41:00,
2013-02-22 16:51:00,35.0,33.0,-100.00,WSW,239,8.0,33.0,92,0.01,,,0.01,53.000000,,2013-02-23 00:51:00,
2013-02-22 17:21:00,33.0,32.0,-100.00,SSW,193,7.0,16.0,97,0.02,,,0.03,31.000000,,2013-02-23 01:21:00,
2013-02-22 17:31:00,33.0,32.0,-100.00,SSW,193,7.0,16.0,97,0.02,,,0.03,31.000000,,2013-02-23 01:31:00,
2013-02-22 17:41:00,33.0,32.0,-100.00,SSW,193,7.0,16.0,97,0.02,,,0.03,31.000000,,2013-02-23 01:41:00,
2013-02-22 17:51:00,33.0,32.0,-100.00,SSW,193,7.0,16.0,97,0.02,,,0.03,31.000000,,2013-02-23 01:51:00,
2013-02-22 18:21:00,33.0,32.0,-100.00,SSW,203,6.0,22.0,98,0.01,,,0.04,6.000000,,2013-02-23 02:21:00,
2013-02-22 18:31:00,33.0,32.0,-100.00,SSW,203,6.0,22.0,98,0.01,,,0.04,6.000000,,2013-02-23 02:31:00,
2013-02-22 18:41:00,33.0,32.0,-100.00,SSW,203,6.0,22.0,98,0.01,,,0.04,6.000000,,2013-02-23 02:41:00,
2013-02-22 18:52:00,33.0,32.0,-100.00,SSW,203,6.0,22.0,98,0.01,,,0.04,6.000000,,2013-02-23 02:52:00,
2013-02-22 19:21:00,33.0,32.0,-100.00,SW,223,7.0,24.0,97,0.06,,,0.10,1.000000,,2013-02-23 03:21:00,
2013-02-22 19:31:00,33.0,32.0,-100.00,SW,223,7.0,24.0,97,0.06,,,0.10,1.000000,,2013-02-23 03:31:00,
2013-02-22 19:41:00,33.0,32.0,-100.00,SW,223,7.0,24.0,97,0.06,,,0.10,1.000000,,2013-02-23 03:41:00,
2013-02-22 19:51:00,33.0,32.0,-100.00,SW,223,7.0,24.0,97,0.06,,,0.10,1.000000,,2013-02-23 03:51:00,
2013-02-22 20:21:00,33.0,32.0,-100.00,South,182,7.0,16.0,95,0.01,,,0.11,1.000000,,2013-02-23 04:21:00,
2013-02-22 20:31:00,33.0,32.0,-100.00,South,182,7.0,16.0,95,0.01,,,0.11,1.000000,,2013-02-23 04:31:00,
2013-02-22 20:41:00,33.0,32.0,-100.00,South,182,7.0,16.0,95,0.01,,,0.11,1.000000,,2013-02-23 04:41:00,
2013-02-22 20:51:00,33.0,32.0,-100.00,South,182,7.0,16.0,95,0.01,,,0.11,1.000000,,2013-02-23 04:51:00,
2013-02-22 21:12:00,33.0,32.0,-100.00,SW,222,11.0,19.0,97,0.01,,,0.12,1.000000,,2013-02-23 05:12:00,
2013-02-22 21:22:00,33.0,32.0,-100.00,SW,222,11.0,19.0,97,0.01,,,0.12,1.000000,,2013-02-23 05:22:00,
2013-02-22 21:32:00,33.0,32.0,-100.00,SW,222,11.0,19.0,97,0.01,,,0.12,1.000000,,2013-02-23 05:32:00,
2013-02-22 21:41:00,33.0,32.0,-100.00,SW,222,11.0,19.0,97,0.01,,,0.12,1.000000,,2013-02-23 05:41:00,
2013-02-22 21:52:00,33.0,32.0,-100.00,SW,222,11.0,19.0,97,0.01,,,0.12,1.000000,,2013-02-23 05:52:00,
2013-02-22 23:21:00,27.0,26.0,-100.00,West,276,15.0,31.0,95,-99.99,,,0.12,1.000000,,2013-02-23 07:21:00,
2013-02-22 23:31:00,27.0,26.0,-100.00,West,276,15.0,31.0,95,-99.99,,,0.12,1.000000,,2013-02-23 07:31:00,
2013-02-22 23:41:00,27.0,26.0,-100.00,West,276,15.0,31.0,95,-99.99,,,0.12,1.000000,,2013-02-23 07:41:00,
2013-02-22 23:51:00,27.0,26.0,-100.00,West,276,15.0,31.0,95,-99.99,,,0.12,1.000000,,2013-02-23 07:51:00,